Regional Weather Roundup
Issued by NWS Cleveland, OH

Home | Current Version | Previous Version | Graphics & Text | Print | Product List | Glossary On
Versions: 1 2 3 4 5 6 7 8 9 10 11 12 13 14 15 16 17 18 19 20 21 22 23 24 25 26 27 28 29 30 31 32 33 34 35 36 37 38 39 40 41 42 43 44 45 46 47 48 49 50
000
ASUS41 KCLE 302310
RWRCLE
OHIO REGIONAL WEATHER ROUNDUP
NATIONAL WEATHER SERVICE WILMINGTON, OH
700 PM EDT THU OCT 30 2014

NOTE: "FAIR" INDICATES FEW OR NO CLOUDS BELOW 12,000 FEET WITH NO
SIGNIFICANT WEATHER AND/OR OBSTRUCTIONS TO VISIBILITY.

OHZ001>008-015>018-024>027-034-035-043-044-310000-
   NORTHWEST OHIO

CITY           SKY/WX    TMP DP  RH WIND       PRES   REMARKS
DEFIANCE       CLOUDY    47  36  65 S3        30.08S
FINDLAY        CLOUDY    48  34  58 W6        30.07S
TOLEDO EXPRESS CLOUDY    48  35  60 W5        30.07S
TOLEDO METCALF CLOUDY    49  35  58 SW3       30.09S
LIMA           CLOUDY    47  36  65 W5        30.08S
$$

OHZ009>014-019>023-028>033-038-089-310000-
   NORTHEAST OHIO

CITY           SKY/WX    TMP DP  RH WIND       PRES   REMARKS
CLE-HOPKINS    MOCLDY    44  35  70 NW6       30.10S
CLE-LAKEFRONT  MOCLDY   N/A N/A N/A MISG        N/A
CUY CO. ARPT   MOCLDY    45  39  81 W6        30.08S
LORAIN-ELYRIA  MOCLDY    43  36  76 N5        30.09S
ASHTABULA      PTCLDY    43  36  76 NW3       30.08S
AKRON-CANTON   CLOUDY    47  36  65 W3        30.06F
WOOSTER        CLOUDY    47  37  68 N6        30.07F
MANSFIELD      CLOUDY    45  36  70 NW3       30.07S
YOUNGSTOWN     CLOUDY    46  36  68 NW5       30.06S
$$

OHZ042-051>053-060>062-070>072-077>081-310000-
  SOUTHWEST OHIO

CITY           SKY/WX    TMP DP  RH WIND       PRES   REMARKS
CINC-COVINGTON MOCLDY    52  32  46 CALM      30.06S
CINC-LUNKEN    MOCLDY    49  38  65 CALM      30.08R
HAMILTON       MOCLDY    48  36  63 CALM      30.08S
DAYTON         MOCLDY    46  35  65 NE5       30.08S
WRIGHT-PAT AFB MOCLDY    47  33  58 NE5       30.08R
DAYTON GENERAL MOCLDY    48  34  58 CALM      30.06S
WILMINGTON     PTCLDY    46  32  58 CALM      30.07R
$$

OHZ036-037-039>041-045>050-054>059-063>069-073>076-082>088-310000-
  CENTRAL AND SOUTHEAST OHIO

CITY           SKY/WX    TMP DP  RH WIND       PRES   REMARKS
COLUMBUS       CLOUDY    48  33  56 N3        30.08S
OSU AIRPORT    CLOUDY    47  34  60 CALM      30.08S
BOLTON FIELD   CLOUDY    46  36  66 CALM      30.08S
RICKENBACK AFB CLOUDY    48  32  54 CALM      30.07F
NEWARK         CLOUDY    48  34  58 CALM      30.08S
MARION         CLOUDY    47  34  60 CALM      30.08S
LANCASTER      CLOUDY    48  34  58 CALM      30.08F
ZANESVILLE     CLOUDY    47  33  58 CALM      30.08R
NEW PHILLY     CLOUDY    49  36  61 CALM      30.08S
$$



USA.gov is the U.S. government's official web portal to all federal, state and local government web resources and services.